| time (UTC) | temp F | wind direction | speed knots | gust knots | rain 1hr in | rain 24hr in | rain mn in | humidity % | barometer mb |
| 20260506123030 | 67 | 179 | 3.5 | 13.9 | 0.00 | 0.00 | 0.00 | 64 | 1007.2 |
| 20260506121520 | 67 | 252 | 6.1 | 13.0 | 0.00 | 0.00 | 0.00 | 64 | 1007.3 |
| 20260506120047 | 66 | 211 | 7.0 | 8.7 | 0.00 | 0.00 | 0.00 | 65 | 1007.5 |
| 20260506114550 | 66 | 222 | 5.2 | 13.0 | 0.00 | 0.00 | 0.00 | 67 | 1007.7 |
| 20260506113030 | 65 | 236 | 4.3 | 12.2 | 0.00 | 0.00 | 0.00 | 68 | 1007.7 |
| 20260506111511 | 65 | 195 | 2.6 | 7.8 | 0.00 | 0.00 | 0.00 | 69 | 1007.6 |
| 20260506110127 | 64 | 298 | 4.3 | 10.4 | 0.00 | 0.00 | 0.00 | 70 | 1007.3 |
| 20260506104529 | 64 | 252 | 2.6 | 10.4 | 0.00 | 0.00 | 0.00 | 70 | 1007.6 |
| 20260506103019 | 64 | 190 | 3.5 | 9.6 | 0.00 | 0.00 | 0.00 | 70 | 1007.5 |
| 20260506101629 | 64 | 205 | 4.3 | 10.4 | 0.00 | 0.00 | 0.00 | 71 | 1007.3 |
| 20260506100053 | 64 | 160 | 2.6 | 5.2 | 0.00 | 0.00 | 0.00 | 71 | 1007.1 |
| 20260506094541 | 64 | 198 | 4.3 | 10.4 | 0.00 | 0.00 | 0.00 | 71 | 1007.2 |
| 20260506093031 | 64 | 188 | 3.5 | 7.8 | 0.00 | 0.00 | 0.00 | 71 | 1007.2 |
| 20260506091529 | 64 | 199 | 2.6 | 8.7 | 0.00 | 0.00 | 0.00 | 71 | 1007.3 |
| 20260506090005 | 64 | 260 | 2.6 | 7.8 | 0.00 | 0.00 | 0.00 | 70 | 1007.4 |
| 20260506084556 | 64 | 198 | 6.1 | 10.4 | 0.00 | 0.00 | 0.00 | 70 | 1007.5 |
| 20260506083032 | 64 | 182 | 3.5 | 10.4 | 0.00 | 0.00 | 0.00 | 69 | 1007.4 |
| 20260506081514 | 64 | 191 | 3.5 | 7.8 | 0.00 | 0.00 | 0.00 | 68 | 1007.5 |
| 20260506073025 | 66 | 182 | 4.3 | 8.7 | 0.00 | 0.00 | 0.00 | 66 | 1007.4 |
| 20260506071517 | 66 | 166 | 3.5 | 9.6 | 0.00 | 0.00 | 0.00 | 65 | 1007.6 |
| 20260506070124 | 66 | 224 | 3.5 | 9.6 | 0.00 | 0.00 | 0.00 | 64 | 1007.6 |
| 20260506061508 | 67 | 303 | 4.3 | 11.3 | 0.00 | 0.00 | 0.00 | 62 | 1007.6 |
| 20260506050128 | 68 | 268 | 3.5 | 7.8 | 0.00 | 0.00 | 0.00 | 59 | 1008.2 |
| 20260506044546 | 68 | 186 | 1.7 | 9.6 | 0.00 | 0.00 | 0.00 | 58 | 1008.2 |
| 20260506043040 | 69 | 247 | 3.5 | 8.7 | 0.00 | 0.00 | 0.00 | 57 | 1008.2 |
| 20260506041513 | 69 | 221 | 3.5 | 7.0 | 0.00 | 0.00 | 0.00 | 55 | 1008.1 |
| 20260506040009 | 69 | 155 | 3.5 | 10.4 | 0.00 | 0.00 | 0.00 | 54 | 1008.0 |
| 20260506034551 | 69 | 290 | 2.6 | 8.7 | 0.00 | 0.00 | 0.00 | 54 | 1008.1 |
| 20260506033041 | 69 | 277 | 4.3 | 11.3 | 0.00 | 0.00 | 0.00 | 53 | 1008.0 |
| 20260506031520 | 70 | 267 | 5.2 | 12.2 | 0.00 | 0.00 | 0.00 | 53 | 1007.9 |
| 20260506030001 | 70 | 148 | 4.3 | 14.8 | 0.00 | 0.00 | 0.00 | 53 | 1007.9 |
| 20260506024554 | 70 | 251 | 6.1 | 12.2 | 0.00 | 0.00 | 0.00 | 53 | 1008.0 |
| 20260506023018 | 70 | 221 | 4.3 | 11.3 | 0.00 | 0.00 | 0.00 | 53 | 1008.0 |
| 20260506021501 | 71 | 133 | 3.5 | 9.6 | 0.00 | 0.00 | 0.00 | 51 | 1007.9 |
| 20260506020120 | 72 | 187 | 4.3 | 12.2 | 0.00 | 0.00 | 0.00 | 50 | 1007.8 |
| 20260506014546 | 72 | 263 | 6.1 | 12.2 | 0.00 | 0.00 | 0.00 | 49 | 1007.8 |
| 20260506013016 | 72 | 218 | 5.2 | 15.6 | 0.00 | 0.00 | 0.00 | 48 | 1007.4 |
| 20260506011505 | 74 | 233 | 2.6 | 11.3 | 0.00 | 0.00 | 0.00 | 44 | 1007.2 |
| 20260506010051 | 77 | 191 | 4.3 | 12.2 | 0.00 | 0.00 | 0.00 | 39 | 1007.0 |
| 20260506004537 | 78 | 209 | 7.8 | 13.9 | 0.00 | 0.00 | 0.00 | 37 | 1006.7 |
| 20260506003017 | 78 | 260 | 7.8 | 14.8 | 0.00 | 0.00 | 0.00 | 37 | 1006.5 |
| 20260505234507 | 80 | 269 | 4.3 | 10.4 | 0.00 | 0.00 | 0.00 | 31 | 1006.2 |
| 20260505233047 | 80 | 228 | 8.7 | 15.6 | 0.00 | 0.00 | 0.00 | 30 | 1006.1 |
| 20260505231546 | 81 | 292 | 8.7 | 18.2 | 0.00 | 0.00 | 0.00 | 29 | 1005.9 |
| 20260505230017 | 81 | 234 | 7.8 | 17.4 | 0.00 | 0.00 | 0.00 | 28 | 1005.7 |
| 20260505224510 | 82 | 277 | 10.4 | 17.4 | 0.00 | 0.00 | 0.00 | 28 | 1005.6 |
| 20260505223048 | 82 | 96 | 7.8 | 14.8 | 0.00 | 0.00 | 0.00 | 28 | 1005.4 |
| 20260505221526 | 82 | 225 | 8.7 | 22.6 | 0.00 | 0.00 | 0.00 | 28 | 1005.4 |
| 20260505220004 | 82 | 248 | 10.4 | 20.9 | 0.00 | 0.00 | 0.00 | 28 | 1005.2 |
| 20260505214606 | 83 | 290 | 9.6 | 19.1 | 0.00 | 0.00 | 0.00 | 28 | 1005.0 |
| 20260505213026 | 83 | 245 | 8.7 | 18.2 | 0.00 | 0.00 | 0.00 | 29 | 1004.9 |
| 20260505211516 | 83 | 153 | 10.4 | 20.9 | 0.00 | 0.00 | 0.00 | 28 | 1004.8 |
| 20260505210124 | 84 | 263 | 11.3 | 20.0 | 0.00 | 0.00 | 0.00 | 28 | 1004.8 |
| 20260505204558 | 84 | 227 | 5.2 | 14.8 | 0.00 | 0.00 | 0.00 | 29 | 1004.8 |
| 20260505203126 | 84 | 248 | 7.0 | 26.1 | 0.00 | 0.00 | 0.00 | 28 | 1005.0 |
| 20260505201528 | 84 | 248 | 6.1 | 16.5 | 0.00 | 0.00 | 0.00 | 29 | 1005.1 |
| 20260505200018 | 84 | 345 | 8.7 | 20.9 | 0.00 | 0.00 | 0.00 | 29 | 1005.0 |
| 20260505194558 | 82 | 284 | 9.6 | 19.1 | 0.00 | 0.00 | 0.00 | 31 | 1005.4 |
| 20260505193049 | 83 | 275 | 9.6 | 22.6 | 0.00 | 0.00 | 0.00 | 29 | 1005.2 |
| 20260505191543 | 83 | 302 | 9.6 | 18.2 | 0.00 | 0.00 | 0.00 | 32 | 1005.7 |
| 20260505190017 | 82 | 240 | 7.0 | 14.8 | 0.00 | 0.00 | 0.00 | 35 | 1006.0 |
| 20260505184551 | 82 | 245 | 9.6 | 18.2 | 0.00 | 0.00 | 0.00 | 34 | 1006.3 |
| 20260505183055 | 82 | 257 | 7.0 | 23.5 | 0.00 | 0.00 | 0.00 | 35 | 1006.4 |
| 20260505181532 | 81 | 163 | 9.6 | 15.6 | 0.00 | 0.00 | 0.00 | 36 | 1006.3 |
| 20260505180019 | 81 | 171 | 9.6 | 17.4 | 0.00 | 0.00 | 0.00 | 38 | 1006.5 |
| 20260505174506 | 80 | 202 | 7.0 | 13.0 | 0.00 | 0.00 | 0.00 | 39 | 1006.6 |
| 20260505173051 | 80 | 198 | 6.1 | 18.2 | 0.00 | 0.00 | 0.00 | 39 | 1006.9 |
| 20260505171531 | 80 | 217 | 6.1 | 13.9 | 0.00 | 0.00 | 0.00 | 39 | 1007.0 |
| 20260505170009 | 79 | 183 | 6.1 | 14.8 | 0.00 | 0.00 | 0.00 | 40 | 1007.1 |
| 20260505164624 | 79 | 232 | 7.0 | 13.0 | 0.00 | 0.00 | 0.00 | 40 | 1007.2 |
| 20260505163031 | 78 | 295 | 4.3 | 16.5 | 0.00 | 0.00 | 0.00 | 41 | 1007.5 |
| 20260505161521 | 77 | 175 | 7.8 | 15.6 | 0.00 | 0.00 | 0.00 | 42 | 1007.8 |
| 20260505153059 | 75 | 279 | 5.2 | 12.2 | 0.00 | 0.00 | 0.00 | 45 | 1008.5 |
| 20260505151531 | 74 | 184 | 5.2 | 9.6 | 0.00 | 0.00 | 0.00 | 45 | 1008.5 |
| 20260505130117 | 66 | 208 | 3.5 | 9.6 | 0.00 | 0.00 | 0.00 | 55 | 1008.7 |
| 20260505124535 | 65 | 257 | 3.5 | 11.3 | 0.00 | 0.00 | 0.00 | 57 | 1008.6 |